Location: Medlow Airstrip Trail, Medlow Bath NSW 2780, Australia
(33.6682°S, 150.3233°E)
Time: 05:04:42
(UTC+10:00)

A-11 Canister half - All Passes

Search period start: 23 September 2019 00:00
Search period end: 03 October 2019 00:00
Orbit: 1513 x 1686 km, 47.2° (Epoch: 22 September)

Date Brightness Start Highest point End Pass type
(mag) Time Alt. Az. Time Alt. Az. Time Alt. Az.
23 Sep - 01:28:24 10° SW 01:37:59 42° SSE 01:47:25 10° E visible
23 Sep - 03:33:58 10° SW 03:44:16 83° SE 03:54:12 10° NE visible
23 Sep - 05:40:09 10° WSW 05:48:34 31° NW 05:56:45 10° N daylight
23 Sep - 18:48:36 10° N 18:56:52 32° NE 19:05:21 10° ESE visible
23 Sep - 20:51:11 10° NW 21:01:12 83° SW 21:11:30 10° SE visible
23 Sep - 22:58:00 10° W 23:07:29 42° SSW 23:17:03 10° SE visible
24 Sep - 01:05:22 10° SW 01:14:54 41° SSE 01:24:19 10° E visible
24 Sep - 03:11:00 10° SW 03:21:18 79° SE 03:31:15 10° ENE visible
24 Sep - 05:17:01 10° WSW 05:25:42 34° NW 05:34:08 10° N visible
24 Sep - 18:26:00 10° N 18:34:00 29° NE 18:42:12 10° ESE visible
24 Sep - 20:28:14 10° NW 20:38:13 86° SW 20:48:31 10° SE visible
24 Sep - 22:34:55 10° W 22:44:25 43° SSW 22:54:02 10° SE visible
25 Sep - 00:42:20 10° WSW 00:51:50 40° S 01:01:13 10° ESE visible
25 Sep - 02:48:02 10° SW 02:58:19 76° SSE 03:08:17 10° ENE visible
25 Sep - 04:53:54 10° WSW 05:02:49 37° NW 05:11:30 10° NNE visible
25 Sep - 18:03:27 10° N 18:11:08 27° NE 18:19:01 10° ESE visible
25 Sep - 20:05:18 10° NW 20:15:15 90° NE 20:25:33 10° SE visible
25 Sep - 22:11:49 10° W 22:21:20 44° SSW 22:31:01 10° SE visible
26 Sep - 00:19:17 10° WSW 00:28:44 40° S 00:38:07 10° ESE visible
26 Sep - 02:25:03 10° SW 02:35:19 72° SSE 02:45:19 10° ENE visible
26 Sep - 04:30:49 10° WSW 04:39:57 40° NW 04:48:49 10° NNE visible
26 Sep - 17:40:56 10° N 17:48:18 25° NE 17:55:49 10° ESE daylight
26 Sep - 19:42:23 10° NW 19:52:18 85° NE 20:02:33 10° SE visible
26 Sep - 21:48:43 10° W 21:58:16 45° SSW 22:07:59 10° SE visible
26 Sep - 23:56:14 10° WSW 00:05:38 39° S 00:15:01 10° ESE visible
27 Sep - 02:02:04 10° SW 02:12:19 69° SSE 02:22:19 10° ENE visible
27 Sep - 04:07:44 10° WSW 04:17:03 43° NW 04:26:07 10° NNE visible
27 Sep - 17:18:28 10° N 17:25:26 22° NE 17:32:33 10° ESE daylight
27 Sep - 19:19:30 10° NW 19:29:21 81° NE 19:39:34 10° SE visible
27 Sep - 21:25:38 10° W 21:35:13 46° SSW 21:44:59 10° SE visible
27 Sep - 23:33:10 10° WSW 23:42:33 39° S 23:51:55 10° ESE visible
28 Sep - 01:39:05 10° SW 01:49:19 66° SSE 01:59:19 10° ENE visible
28 Sep - 03:44:40 10° WSW 03:54:10 46° NW 04:03:24 10° NNE visible
28 Sep - 16:56:04 10° NNE 17:02:35 20° ENE 17:09:16 10° E daylight
28 Sep - 18:56:37 10° NW 19:06:25 77° NE 19:16:35 10° SE visible
28 Sep - 21:02:33 10° W 21:12:09 48° SSW 21:21:58 10° SE visible
28 Sep - 23:10:07 10° WSW 23:19:27 38° S 23:28:48 10° ESE visible
29 Sep - 01:16:07 10° SW 01:26:18 63° SSE 01:36:18 10° ENE visible
29 Sep - 03:21:38 10° WSW 03:31:16 49° NW 03:40:39 10° NNE visible
29 Sep - 16:33:42 10° NNE 16:39:45 18° ENE 16:45:54 10° E daylight
29 Sep - 18:33:46 10° NW 18:43:28 73° NE 18:53:35 10° SE visible
29 Sep - 20:39:30 10° W 20:49:06 49° SSW 20:58:58 10° SE visible
29 Sep - 22:47:04 10° WSW 22:56:21 38° S 23:05:42 10° ESE visible
30 Sep - 00:53:08 10° SW 01:03:17 61° SSE 01:13:16 10° ENE visible
30 Sep - 02:58:35 10° WSW 03:08:22 53° NW 03:17:53 10° NNE visible
30 Sep - 16:11:27 10° NNE 16:16:55 17° ENE 16:22:28 10° E daylight
30 Sep - 18:10:55 10° NW 18:20:33 69° NE 18:30:35 10° ESE visible
30 Sep - 20:16:27 10° W 20:26:03 51° SSW 20:35:58 10° SE visible
30 Sep - 22:24:00 10° WSW 22:33:16 38° S 22:42:35 10° ESE visible
01 Oct - 00:30:10 10° SW 00:40:16 58° SSE 00:50:13 10° ENE visible
01 Oct - 02:35:34 10° WSW 02:45:27 56° NW 02:55:05 10° NNE visible
01 Oct - 04:45:59 10° WNW 04:48:55 12° WNW 04:51:49 10° NW visible
01 Oct - 15:49:18 10° NNE 15:54:05 15° ENE 15:58:55 10° E daylight
01 Oct - 17:48:05 10° NW 17:57:38 65° NE 18:07:35 10° ESE daylight
01 Oct - 19:53:24 10° W 20:03:01 53° SSW 20:12:57 10° SE visible
01 Oct - 22:00:56 10° WSW 22:10:10 38° S 22:19:29 10° ESE visible
02 Oct - 00:07:11 10° SW 00:17:14 56° SSE 00:27:10 10° ENE visible
02 Oct - 02:12:32 10° WSW 02:22:31 60° NW 02:32:17 10° NNE visible
02 Oct - 04:21:57 10° W 04:26:04 13° WNW 04:30:10 10° NW visible
02 Oct - 15:27:20 10° NE 15:31:15 13° ENE 15:35:13 10° E daylight
02 Oct - 17:25:16 10° NNW 17:34:43 61° NE 17:44:34 10° ESE daylight
02 Oct - 19:30:21 10° WNW 19:39:59 55° SSW 19:49:58 10° SE visible
02 Oct - 21:37:51 10° WSW 21:47:03 38° S 21:56:23 10° ESE visible
